When you browse on this site, cookies collect data to enhance your experience and personalize the content and advertising you see.
Visit our Privacy Policy to learn more. By continuing to use the site, you agree to this use of cookies and data.
  • In Czech Republic
  • List of Countries
  • For 7 days
  • Water Temperature
  • Satellite Maps
  • Weather Map
  • Weather Widgets
  • user-avatar
    Login

    Hourly Weather Ames

    Today, 18 November, Sunday

    Time Temperature Precipitation Wind Pressure Humidity
    00:00 +13°C° 0 mm 3 mps 739 mmHg 81%
    01:00 +14°C° 0 mm 2 mps 738 mmHg 82%
    02:00 +13°C° 0 mm 2 mps 738 mmHg 83%
    03:00 +13°C° 0 mm 2 mps 738 mmHg 83%
    04:00 +13°C° 0 mm 2 mps 738 mmHg 83%
    05:00 +12°C° 0 mm 3 mps 737 mmHg 83%
    06:00 +13°C° 0 mm 2 mps 737 mmHg 82%
    07:00 +14°C° 0 mm 2 mps 737 mmHg 80%
    08:00 +14°C° 0 mm 2 mps 737 mmHg 79%
    09:00 +16°C° 0 mm 2 mps 737 mmHg 75%
    10:00 +17°C° 0 mm 2 mps 737 mmHg 71%
    11:00 +18°C° 0 mm 2 mps 737 mmHg 66%
    12:00 +18°C° 0.2 mm 2 mps 737 mmHg 70%
    13:00 +18°C° 0.2 mm 2 mps 736 mmHg 74%
    14:00 +18°C° 0.2 mm 2 mps 736 mmHg 77%
    15:00 +16°C° 0.4 mm 2 mps 736 mmHg 83%
    16:00 +14°C° 0.4 mm 3 mps 736 mmHg 89%
    17:00 +12°C° 0.4 mm 3 mps 736 mmHg 94%
    18:00 +13°C° 0.2 mm 2 mps 736 mmHg 95%
    19:00 +13°C° 0.2 mm 2 mps 736 mmHg 96%
    20:00 +12°C° 0.2 mm 2 mps 736 mmHg 97%
    21:00 +12°C° 0.1 mm 2 mps 736 mmHg 97%
    22:00 +12°C° 0.1 mm 2 mps 735 mmHg 98%
    23:00 +12°C° 0.1 mm 2 mps 735 mmHg 98%

    Tomorrow, 19 November, Monday

    Time Temperature Precipitation Wind Pressure Humidity
    00:00 +12°C° 0.2 mm 1 mps 735 mmHg 98%
    01:00 +12°C° 0.2 mm 1 mps 735 mmHg 98%
    02:00 +12°C° 0.2 mm 1 mps 735 mmHg 98%
    03:00 +12°C° 0.1 mm 1 mps 735 mmHg 98%
    04:00 +12°C° 0.1 mm 1 mps 736 mmHg 98%
    05:00 +12°C° 0.1 mm 1 mps 736 mmHg 98%
    06:00 +12°C° 0.1 mm 1 mps 736 mmHg 97%
    07:00 +12°C° 0.1 mm 1 mps 737 mmHg 97%
    08:00 +13°C° 0.1 mm 1 mps 737 mmHg 96%
    09:00 +14°C° 0 mm 1 mps 737 mmHg 92%
    10:00 +15°C° 0 mm 1 mps 737 mmHg 88%
    11:00 +16°C° 0 mm 1 mps 737 mmHg 83%
    12:00 +15°C° 0.2 mm 1 mps 737 mmHg 85%
    13:00 +15°C° 0.2 mm 1 mps 737 mmHg 87%
    14:00 +15°C° 0.2 mm 1 mps 737 mmHg 89%
    15:00 +14°C° 0.2 mm 1 mps 737 mmHg 92%
    16:00 +14°C° 0.2 mm 1 mps 737 mmHg 95%
    17:00 +13°C° 0.2 mm 1 mps 737 mmHg 98%
    18:00 +13°C° 0.4 mm 1 mps 736 mmHg 98%
    19:00 +13°C° 0.4 mm 1 mps 736 mmHg 98%
    20:00 +12°C° 0.4 mm 1 mps 736 mmHg 98%
    21:00 +12°C° 1.1 mm 1 mps 736 mmHg 98%
    22:00 +12°C° 1.1 mm 1 mps 736 mmHg 98%
    23:00 +12°C° 1.1 mm 1 mps 736 mmHg 98%

    Day after tomorrow, 20 November, Tuesday

    Time Temperature Precipitation Wind Pressure Humidity
    00:00 +12°C° 0.9 mm 1 mps 735 mmHg 98%
    01:00 +12°C° 0.9 mm 1 mps 735 mmHg 98%
    02:00 +12°C° 0.9 mm 2 mps 735 mmHg 98%
    03:00 +12°C° 0.2 mm 2 mps 735 mmHg 98%
    04:00 +10°C° 0.2 mm 2 mps 734 mmHg 97%
    05:00 +10°C° 0.2 mm 2 mps 734 mmHg 97%
    06:00 +10°C° 0.3 mm 2 mps 734 mmHg 97%
    07:00 +10°C° 0.3 mm 2 mps 734 mmHg 96%
    08:00 +10°C° 0.3 mm 3 mps 735 mmHg 96%
    09:00 +10°C° 0.6 mm 3 mps 735 mmHg 95%
    10:00 +10°C° 0.6 mm 3 mps 735 mmHg 94%
    11:00 +11°C° 0.6 mm 3 mps 735 mmHg 92%
    12:00 +10°C° 0.3 mm 3 mps 735 mmHg 92%
    13:00 +10°C° 0.3 mm 3 mps 735 mmHg 92%
    14:00 +10°C° 0.3 mm 3 mps 735 mmHg 92%
    15:00 +9°C° 0.1 mm 3 mps 736 mmHg 93%
    16:00 +9°C° 0.1 mm 3 mps 736 mmHg 93%
    17:00 +8°C° 0.1 mm 2 mps 736 mmHg 94%
    18:00 +7°C° 0 mm 2 mps 737 mmHg 94%
    19:00 +7°C° 0 mm 2 mps 737 mmHg 95%
    20:00 +7°C° 0 mm 1 mps 738 mmHg 95%
    21:00 +7°C° 0 mm 1 mps 738 mmHg 95%
    22:00 +7°C° 0 mm 1 mps 738 mmHg 96%
    23:00 +6°C° 0 mm 1 mps 738 mmHg 97%

    21 November, Wednesday

    Time Temperature Precipitation Wind Pressure Humidity
    00:00 +6°C° 0 mm 1 mps 738 mmHg 97%
    01:00 +6°C° 0 mm 1 mps 738 mmHg 97%
    02:00 +5°C° 0 mm 2 mps 738 mmHg 97%
    03:00 +6°C° 0.3 mm 2 mps 738 mmHg 97%
    04:00 +6°C° 0.3 mm 2 mps 738 mmHg 96%
    05:00 +5°C° 0.3 mm 3 mps 738 mmHg 96%
    06:00 +7°C° 0.4 mm 3 mps 738 mmHg 95%
    07:00 +6°C° 0.4 mm 4 mps 739 mmHg 94%
    08:00 +7°C° 0.4 mm 4 mps 739 mmHg 93%
    09:00 +8°C° 0.4 mm 5 mps 739 mmHg 90%
    10:00 +8°C° 0.4 mm 5 mps 739 mmHg 87%
    11:00 +9°C° 0.4 mm 5 mps 739 mmHg 84%
    12:00 +9°C° 0.3 mm 5 mps 739 mmHg 84%
    13:00 +9°C° 0.3 mm 5 mps 739 mmHg 84%
    14:00 +9°C° 0.3 mm 5 mps 739 mmHg 84%
    15:00 +8°C° 0.4 mm 5 mps 739 mmHg 87%
    16:00 +7°C° 0.4 mm 5 mps 739 mmHg 90%
    17:00 +6°C° 0.4 mm 4 mps 739 mmHg 93%
    18:00 +6°C° 0.5 mm 4 mps 739 mmHg 93%
    19:00 +6°C° 0.5 mm 4 mps 740 mmHg 93%
    20:00 +6°C° 0.5 mm 4 mps 740 mmHg 93%
    21:00 +6°C° 0.2 mm 4 mps 740 mmHg 94%
    22:00 +6°C° 0.2 mm 5 mps 740 mmHg 94%
    23:00 +6°C° 0.2 mm 5 mps 740 mmHg 94%

    22 November, Thursday

    Time Temperature Precipitation Wind Pressure Humidity
    00:00 +6°C° 0.4 mm 5 mps 740 mmHg 94%
    01:00 +6°C° 0.4 mm 5 mps 740 mmHg 93%
    02:00 +6°C° 0.4 mm 5 mps 740 mmHg 93%
    03:00 +7°C° 0.6 mm 5 mps 740 mmHg 92%
    04:00 +7°C° 0.6 mm 5 mps 740 mmHg 92%
    05:00 +7°C° 0.6 mm 5 mps 740 mmHg 92%
    06:00 +7°C° 0.6 mm 5 mps 741 mmHg 91%
    07:00 +7°C° 0.6 mm 5 mps 741 mmHg 91%
    08:00 +8°C° 0.6 mm 4 mps 741 mmHg 90%
    09:00 +8°C° 0.8 mm 4 mps 742 mmHg 90%
    10:00 +8°C° 0.8 mm 4 mps 742 mmHg 89%
    11:00 +10°C° 0.8 mm 4 mps 742 mmHg 89%
    12:00 +8°C° 1 mm 4 mps 742 mmHg 91%
    13:00 +9°C° 1 mm 3 mps 742 mmHg 92%
    14:00 +9°C° 1 mm 3 mps 742 mmHg 94%
    15:00 +9°C° 0.8 mm 3 mps 742 mmHg 95%
    16:00 +8°C° 0.8 mm 2 mps 743 mmHg 96%
    17:00 +8°C° 0.8 mm 2 mps 743 mmHg 97%
    18:00 +9°C° 0.3 mm 1 mps 743 mmHg 98%
    19:00 +8°C° 0.3 mm 1 mps 744 mmHg 98%
    20:00 +8°C° 0.3 mm 1 mps 744 mmHg 98%
    21:00 +7°C° 0.1 mm 2 mps 744 mmHg 98%
    22:00 +7°C° 0.1 mm 2 mps 744 mmHg 98%
    23:00 +7°C° 0.1 mm 2 mps 745 mmHg 98%

    23 November, Friday

    Time Temperature Precipitation Wind Pressure Humidity
    00:00 +7°C° 0.1 mm 3 mps 745 mmHg 98%
    01:00 +5°C° 0.1 mm 3 mps 745 mmHg 98%
    02:00 +5°C° 0.1 mm 3 mps 745 mmHg 98%
    03:00 +5°C° 0.1 mm 3 mps 744 mmHg 97%
    04:00 +5°C° 0.1 mm 4 mps 744 mmHg 97%
    05:00 +5°C° 0.1 mm 4 mps 744 mmHg 97%
    06:00 +6°C° 0.2 mm 4 mps 744 mmHg 96%
    07:00 +6°C° 0.2 mm 4 mps 745 mmHg 95%
    08:00 +6°C° 0.2 mm 4 mps 745 mmHg 94%
    09:00 +7°C° 0.3 mm 5 mps 744 mmHg 91%
    10:00 +8°C° 0.3 mm 5 mps 744 mmHg 88%
    11:00 +9°C° 0.3 mm 5 mps 744 mmHg 86%
    12:00 +9°C° 0.5 mm 5 mps 744 mmHg 87%
    13:00 +9°C° 0.5 mm 5 mps 743 mmHg 87%
    14:00 +9°C° 0.5 mm 5 mps 743 mmHg 88%
    15:00 +8°C° 0.8 mm 5 mps 743 mmHg 91%
    16:00 +8°C° 0.8 mm 5 mps 743 mmHg 93%
    17:00 +7°C° 0.8 mm 4 mps 743 mmHg 95%
    18:00 +7°C° 0.9 mm 4 mps 743 mmHg 95%
    19:00 +7°C° 0.9 mm 4 mps 743 mmHg 95%
    20:00 +7°C° 0.9 mm 4 mps 743 mmHg 95%
    21:00 +7°C° 0.4 mm 4 mps 743 mmHg 95%
    22:00 +7°C° 0.4 mm 4 mps 744 mmHg 95%
    23:00 +6°C° 0.4 mm 4 mps 744 mmHg 95%
    Show more